Regional Weather Roundup
Issued by NWS Charleston, SC

Current Version | Previous Version | Graphics & Text | Print | Product List | Glossary On
Versions: 1 2 3 4 5 6 7 8 9 10 11 12 13 14 15 16 17 18 19 20 21 22 23 24 25 26 27 28 29 30 31 32 33 34 35 36 37 38 39 40 41 42 43 44 45 46 47 48 49 50
000
ASUS42 KCHS 300026
RWRCHS

REGIONAL WEATHER ROUNDUP
NATIONAL WEATHER SERVICE CHARLESTON SC
800 PM EDT SAT AUG 29 2015

NOTE: "FAIR" INDICATES FEW OR NO CLOUDS BELOW 12,000 FEET WITH NO
SIGNIFICANT WEATHER AND/OR OBSTRUCTIONS TO VISIBILITY.

NOT ALL STATIONS ARE QUALITY CONTROLLED BY THE NATIONAL
WEATHER SERVICE. USE DATA WITH CAUTION...ESPECIALLY
DEWPOINT OBSERVATIONS.

SCZ027-030-031-034>040-042>050-300100-
...SOUTHEAST SOUTH CAROLINA...

CITY           SKY/WX    TMP DP  RH WIND       PRES   REMARKS
N CHARLESTON   MOCLDY    79  70  74 E5        30.11R
6HR MIN TEMP:  79; 6HR MAX TEMP:  85; 6HR PCP: TRACE;

WATERFRONT PRK   N/A     81  74  79 E10       30.07S
MOUNT PLEASANT FAIR      79  73  83 E3        30.11S
JOHNS ISLAND   FAIR      79  73  83 E6        30.11R
PINOPOLIS        N/A     84  63  48 NE7       30.02F
MONCKS CORNER  FAIR      75  68  78 CALM      30.12R
SUMMERVILLE    FAIR      73  66  78 CALM      30.13R
BEAUFORT MCAS  MOCLDY    78  71  79 NE5       30.11R
6HR MIN TEMP:  76; 6HR MAX TEMP:  84; 6HR PCP:  0.01;

BEAUFORT ARPT  FAIR      79  72  78 CALM      30.10S
HILTON HEAD IS MOCLDY    81  73  78 N7        30.12R
WALTERBORO     MOCLDY    77  68  73 CALM      30.13R
ALLENDALE      FAIR      75  64  69 CALM      30.12R

...SOUTHERN MIDLANDS AND PEE DEE...

CITY           SKY/WX    TMP DP  RH WIND       PRES   REMARKS
GEORGETOWN     NOT AVBL
KINGSTREE      NOT AVBL
ORANGEBURG     CLOUDY    79  56  45 SE5       30.12S
6HR MIN TEMP:  79; 6HR MAX TEMP:  87;

BARNWELL       FAIR      79  64  61 CALM      30.13R
AIKEN          FAIR      77  50  38 E5        30.16R
MANNING        FAIR      72  59  64 CALM      30.12R
COLUMBIA       CLOUDY    81  55  40 E5        30.11S
6HR MIN TEMP:  81; 6HR MAX TEMP:  90;

SUMTER         MOCLDY    77  56  49 NE3       30.10S
6HR MIN TEMP:  77; 6HR MAX TEMP:  87;

FLORENCE       MOCLDY    78  60  53 NE5       30.11F
6HR MIN TEMP:  78; 6HR MAX TEMP:  87;

MYRTLE BEACH   PTCLDY    81  66  61 NE8       30.13R
N MYRTLE BEACH MOCLDY    77  70  79 CALM      30.10S
6HR MIN TEMP:  77; 6HR MAX TEMP:  86;


$$

GAZ063-065-086>088-099>101-113>116-118-119-134>141-150-300100-
...SOUTHEAST GEORGIA...

CITY           SKY/WX    TMP DP  RH WIND       PRES   REMARKS
SAVANNAH ARPT  CLOUDY    79  70  74 E6        30.11R
6HR MIN TEMP:  79; 6HR MAX TEMP:  84;

HUNTER AAF     CLOUDY    78  75  90 VRB3      30.08R
6HR MIN TEMP:  77; 6HR MAX TEMP:  83; 6HR PCP:  0.01;

FORT STEWART   CLOUDY    78  73  83 E1        30.09R
6HR MIN TEMP:  78; 6HR MAX TEMP:  84;

STATESBORO     CLOUDY    76  72  86 CALM      30.12R
SYLVANIA       CLOUDY    76  70  83 E3        30.13R
CLAXTON        NOT AVBL

...CSRA...CENTRAL AND FAR SOUTHEAST GEORGIA...

CITY           SKY/WX    TMP DP  RH WIND       PRES   REMARKS
THOMSON        CLOUDY    78  67  67 CALM      30.16S
AUGUSTA-BUSH   CLOUDY    75  68  78 SE5       30.11R
6HR MIN TEMP:  75; 6HR MAX TEMP:  87;

AUGUSTA-DANIEL CLOUDY    82  58  43 E5        30.12S
SWAINSBORO     LGT RAIN  77  72  83 E5        30.11S
VIDALIA        LGT RAIN  73  72  94 E5        30.10S
EASTMAN        FAIR      76  76 100 E5        30.11R
HAZLEHURST     FAIR      76  76 100 E3        30.08S
ALMA           CLOUDY    76  74  93 VRB3      30.09R
6HR MIN TEMP:  75; 6HR MAX TEMP:  86; 6HR PCP:  0.07;

WAYCROSS       CLOUDY    77  77  99 SE16      30.08
JESUP          MOCLDY    81  73  78 CALM      30.10S
BAXLEY         LGT RAIN  77  73  88 E3        30.09S
BRUNSWICK      CLOUDY    79  73  83 NE6       30.09F
SAINT SIMONS   CLOUDY    80  73  79 E8        30.08R
6HR MIN TEMP:  80; 6HR MAX TEMP:  87;


$$

SCZ027-028-034-036>038-045-046-048>050-GAZ119-141-300100-
...LAKE AND SUPPLEMENTAL COASTAL OBSERVATIONS...

STATION/POSITION TIME  TEMP    WIND        PRES    WAVE   SWELL
                       AIR SEA DIR/SP/G            HT/PER HT/PER/DIR
                 (UTC) (F)     (DEG/KT/KT) (MB)    (FT/S) (FT/S/D)
UPR LAKE MARION  NOT AVBL
WINYAH BAY       2300   81      70/  6     1019.0R
LAKE MURRAY      0000   82     100/  5/  7 1019.3S
ACE BASIN NERRS  NOT AVBL
FORT PULASKI     NOT AVBL
SAPELO ISLAND    0000   80      60/  6     1019.0S

$$

ANZ835-935-AMZ111-154-330-350-352-354-370-450-454-472-300100-
...C-MAN AND BUOY OBSERVATIONS...

STATION/POSITION TIME  TEMP    WIND        PRES    WAVE   SWELL
                       AIR SEA DIR/SP/G            HT/PER HT/PER/DIR
                 (UTC) (F)     (DEG/KT/KT) (MB)    (FT/S) (FT/S/D)
BUOY 41004       2350   81 85   60/ 14/ 16 1018.4R   4/11   2/11
BUOY 41008       2350   81 85   80/ 14/ 16 1018.5R   4/11   3/100/11
FOLLY BEACH CMAN 0000   80      80/ 10/ 11 1019.7R
CAPERS NEARSHORE 2308   81      80/ 12/ 14 1019.3S
FRIPP NEARSHORE  2300   81      80/ 12/ 14 1018.5F


STATION/POSITION TIME  TEMP    WIND        PRES    WAVE   SWELL
                       AIR SEA DIR/SP/G            HT/PER HT/PER/DIR
                 (UTC) (F)     (DEG/KT/KT) (MB)    (FT/S) (FT/S/D)
5E ST. MARYS GA  2321      86                N/A     4/11   2/ 90/11
FRYING PAN BUOY  2350   81 81   60/ 12/ 16 1019.4R   5/ 6   3/100/10
BUOY 41025       2350   78 82   30/ 19/ 21 1018.1F   5/11   3/110/11
CAPE LOOKOUT NC  0000   78      20/  9/ 13 1019.0R
BUOY 41002       2350   82 84  170/  4/  8 1019.7F   5/11   5/120/11
BUOY 41010       2320   84 85  100/ 12/ 14 1017.1F
ST AUGUSTINE FL  0000   83 86  100/  8/  9 1018.5S


$$



USA.gov is the U.S. government's official web portal to all federal, state and local government web resources and services.